Regional Weather Roundup
Issued by NWS

Home | Current Version | Previous Version | Graphics & Text | Print | Product List | Glossary On
Versions: 1 2 3 4 5 6 7 8 9 10 11 12 13 14 15 16 17 18 19 20 21 22 23 24 25 26 27
000
ASUS45 KCYS 172310
RWRWY

WYOMING REGIONAL WEATHER ROUNDUP
NATIONAL WEATHER SERVICE CHEYENNE WY
500 PM MDT TUE OCT 17 2017

NOTE:  "FAIR" INDICATES FEW OR NO CLOUDS BELOW 12,000 FEET
WITH NO SIGNIFICANT WEATHER AND/OR OBSTRUCTIONS TO VISIBILITY.

WYZ001-180000-
YELLOWSTONE NATIONAL PARK

CITY           SKY/WX    TMP DP  RH WIND       PRES   REMARKS
LK YELLOWSTONE NOT AVBL
W YELLOWSTONE  NOT AVBL

$$
WYZ002>013-054>058-071-098>099-180000-
NORTHERN WYOMING

CITY           SKY/WX    TMP DP  RH WIND       PRES   REMARKS
JACKSON        FAIR      61  14  16 SW14G21   30.15F
CODY           FAIR      71  16  12 W8        29.96F
GREYBULL       FAIR      71  19  14 SE7       29.90F
WORLAND        FAIR      72  26  18 E5        29.92F
SHERIDAN       FAIR      74  25  16 W7        29.85F
BUFFALO        FAIR      74   7   7 E5        29.93F
GILLETTE       FAIR      65  21  18 SW6       29.90F
HULETT         FAIR      70  23  17 SW13      29.91F
NEWCASTLE      FAIR      70  19  14 S6        29.94F

$$
WYZ014>020-022>026-101>103-180000-
CENTRAL WYOMING

CITY           SKY/WX    TMP DP  RH WIND       PRES   REMARKS
BIG PINEY      FAIR      61   5  10 W16       30.20F
PINEDALE       FAIR      59  14  17 NE6       30.21F
DUBOIS         FAIR      59  10  14 NW21G35   30.10F
LANDER         FAIR      72  18  13 W17G23    30.02F
RIVERTON       FAIR      69  20  15 SW8       30.03F
CASPER         FAIR      68  15  13 SW15      30.02F
DOUGLAS        FAIR      72  13  10 W17       30.00F

$$
WYZ021-027>030-104>119-180000-
SOUTHERN WYOMING

CITY           SKY/WX    TMP DP  RH WIND       PRES   REMARKS
EVANSTON       FAIR      67   1   7 W17G26    30.24S
KEMMERER       FAIR      63   1   8 W23G29    30.22F
FORT BRIDGER   FAIR      69   1   7 W20G26    30.25S
ROCK SPRINGS   FAIR      63   4   9 SW7       30.20F
DIXON          FAIR      67   8  10 SW10G16   30.25F
RAWLINS        FAIR      65   9  11 SW24      30.18F
SARATOGA       FAIR      64  10  12 W15G22    30.22F
LARAMIE        FAIR      65  11  12 W20       30.18F
CHEYENNE       FAIR      70  12  10 W15G26    30.12F
TORRINGTON     FAIR      76   4   6 W12G21    29.97F
PINE BLUFFS    FAIR      73  12   9 W13       30.07F

$$




USA.gov is the U.S. government's official web portal to all federal, state and local government web resources and services.